Regional Weather Roundup
Issued by NWS

Home | Current Version | Previous Version | Graphics & Text | Print | Product List | Glossary On
Versions: 1 2 3 4 5 6 7 8 9 10 11 12 13 14 15 16 17 18 19 20 21 22 23 24 25 26 27 28 29 30 31 32 33 34 35 36 37 38 39 40 41 42 43 44 45 46 47 48 49 50
962
ASUS43 KBIS 211910
RWRND

NORTH DAKOTA REGIONAL WEATHER ROUNDUP
NATIONAL WEATHER SERVICE BISMARCK ND
200 PM CDT MON AUG 21 2017

NOTE: "FAIR" INDICATES FEW OR NO CLOUDS BELOW 12,000 FEET WITH NO
SIGNIFICANT WEATHER AND/OR OBSTRUCTIONS TO VISIBILITY.


NDZ001>003-009>011-017-212000-
NORTHWEST NORTH DAKOTA

CITY           SKY/WX    TMP DP  RH WIND       PRES   REMARKS
WILLISTON      SUNNY     73  41  31 NW15G24   30.10R
MINOT          SUNNY     74  44  34 NW25G35   29.99R
MINOT AFB      SUNNY     73  42  33 NW23G32   29.98R
$$

NDZ018>021-031>035-040>046-212000-
SOUTHWEST NORTH DAKOTA

CITY           SKY/WX    TMP DP  RH WIND       PRES   REMARKS
BISMARCK       SUNNY     74  55  51 NW15G24   29.98R
DICKINSON      SUNNY     72  43  35 N20G26    30.08R
GARRISON         N/A     73  44  35 NW30G39   29.99R
HETTINGER ARPT SUNNY     73  41  31 N21G28    30.10R
$$

NDZ004>008-012>016-024-026-027-054-212000-
NORTHEAST NORTH DAKOTA

CITY           SKY/WX    TMP DP  RH WIND       PRES   REMARKS
GRAND FORKS    PTSUNNY   71  58  63 N14       29.90F
GRND FRKS AFB  CLOUDY    70  55  57 NE8       29.91F
DEVILS LAKE    MOSUNNY   67  55  65 SW3       29.93S
$$

NDZ022-023-025-028>030-036>039-047>053-212000-
SOUTHEAST NORTH DAKOTA

CITY           SKY/WX    TMP DP  RH WIND       PRES   REMARKS
FARGO          CLOUDY    71  60  68 S9        29.88F
JAMESTOWN      CLOUDY    71  56  58 NW18      29.91S
$$





USA.gov is the U.S. government's official web portal to all federal, state and local government web resources and services.